Simultaneous Nadir Overpasses (SNOs) Predictions

Prediction of SNOs between AQUA and NOAA-19 Satellite Orbit:

Table of predicted SNOs for the next 14.0 days since TLE Epoch: 11/29/2013
Index Date (AQUA) Time (AQUA) Lat,Lon (AQUA) SZA (AQUA ) Date (NOAA-19) Time (NOAA-19) Lat,Lon (NOAA-19) SZA (NOAA-19 ) Distance(km) Time Diff (sec)
1 11/30/2013 20:27:11 -70.31, 53.44 88.01 11/30/2013 20:26:14 -70.31, 53.43 88.01 0.38 57
2 11/30/2013 21:15:50 67.59,-135.44 89.36 11/30/2013 21:16:21 67.60,-135.49 89.38 1.93 31
3 12/03/2013 01:11:38 -70.80, -18.36 87.21 12/03/2013 01:10:32 -70.80, -18.40 87.20 1.40 66
4 12/03/2013 02:00:15 67.98, 153.03 90.06 12/03/2013 02:00:37 67.99, 153.01 90.07 1.06 22
5 12/05/2013 05:56:43 -73.33, -93.94 84.37 12/05/2013 05:55:29 -73.27, -94.26 84.42 12.49 74
6 12/05/2013 06:44:34 68.07, 81.86 90.43 12/05/2013 06:44:47 68.07, 81.89 90.43 1.40 13
7 12/07/2013 11:29:01 68.64, 10.11 91.23 12/07/2013 11:29:06 68.64, 10.12 91.23 0.44 5
8 12/09/2013 16:13:23 68.95, -61.36 91.75 12/09/2013 16:13:20 68.95, -61.33 91.75 1.06 3




NCC Satellite Simultaneous Nadir Overpasses (SNOs) Prediction Service
